Home > Time Zones > World Clock > Weather > Belgium > Spa > Past weeks

Flag for Belgium Weather past 2 weeks in Spa, Belgium

Now
56 °F

Overcast.


Feels Like: 56 °F
Forecast: 41 / 66 °F
Wind: 2 mph from West

Location: Spa / La Sauveniere

Current Time: Sep 1, 2014 at 2:19:46 PM

Latest Report: Sep 1, 2014 at 1:00 PM


Visibility: 12 mi

Pressure: 30.19 "Hg

Humidity: 82%

Dew point: 51 °F

Location of SpaLocation

Historic Weather in Spa — Graph

°F

Spa temperature yesterday

Maximum temperature yesterday: 56 °F (at 1:00 PM)
Minimum temperature yesterday: 51 °F (at 11:00 PM)
Average temperature yesterday: 54 °F

Past Weeks' High & Low Weather Summary

 TemperatureHumidityPressure
High65 °F (Aug 28, 6:00 PM)100% (Aug 26, 7:00 AM)30.19 "Hg (Aug 26, 7:00 AM)
Low44 °F (Aug 20, 6:00 AM)52% (Aug 18, 3:00 PM)29.62 "Hg (Aug 26, 5:00 AM)
Average54 °F86%29.97 "Hg
* Reported Aug 17 1:00 PM — Sep 1 1:00 PM, Spa, Weather by CustomWeather, © 2014

Note: Actual official high and low records may vary slightly from our data, if they occured in-between our weather recording intervals... More about our weather records

Advertising

Spa weather history for previous 24 hours

 ConditionsComfort  
Time TempWeatherWind HumidityBarometerVisibility
1:00 PM
Sep 1
56 °FOvercast.2 mph82%30.19 "Hg12 mi
12:00 PM56 °FOvercast.1 mph86%30.19 "Hg11 mi
11:00 AM55 °FLow clouds.1 mph89%30.18 "Hg9 mi
10:00 AM52 °FLow clouds.2 mph97%30.18 "Hg3 mi
9:00 AM52 °FLight rain. Low clouds.2 mph99%30.17 "Hg1 mi
8:00 AM51 °FDense fog.1 mph100%30.16 "Hg0 mi
7:00 AM51 °FDense fog.2 mph99%30.16 "Hg0 mi
6:00 AM51 °FLow clouds.2 mph100%30.15 "Hg1 mi
5:00 AM51 °FLow clouds.3 mph99%30.14 "Hg1 mi
4:00 AM51 °FLight rain. Dense fog.3 mph100%30.13 "Hg0 mi
3:00 AM51 °FLow clouds.2 mph99%30.13 "HgN/A
2:00 AM51 °FDense fog.2 mph100%30.13 "Hg1 mi
1:00 AM51 °FDense fog.3 mph100%30.12 "Hg0 mi
12:00 AM51 °FFog.2 mph99%30.11 "Hg2 mi
11:00 PM
Aug 31
51 °FFog.2 mph99%30.10 "Hg3 mi
10:00 PM51 °FOvercast.2 mph97%30.09 "HgN/A
9:00 PM53 °FOvercast.3 mph94%30.06 "Hg7 mi
8:00 PM54 °FLow clouds.2 mph98%30.03 "HgN/A
7:00 PM53 °FLight rain. Low clouds.2 mph98%30.03 "Hg4 mi
6:00 PM53 °FLight rain. Low clouds.2 mph93%30.03 "Hg7 mi
5:00 PM56 °FPartly sunny.3 mph92%30.01 "Hg14 mi
4:00 PM55 °FOvercast.2 mph91%30.01 "Hg15 mi
3:00 PM53 °FLight rain. Light fog.3 mph95%30.02 "Hg8 mi
2:00 PM56 °FLow clouds.2 mph94%30.00 "Hg7 mi
Weather by CustomWeather, © 2014

See weather overviewHow to use our weather pages